Location: Kellogg
(38.0159°N, 90.0546°W)
Time: 16:02:34
(UTC+00:00)

S-56A Canister/Altair - All Passes

Search period start: 13 September 2024 00:00
Search period end: 23 September 2024 00:00
Orbit: 637 x 2487 km, 38.9° (Epoch: 12 September)

Date Brightness Start Highest point End Pass type
(mag) Time Alt. Az. Time Alt. Az. Time Alt. Az.
13 Sep - 00:58:30 10° SW 01:04:13 63° SSE 01:12:49 10° ENE visible
13 Sep - 03:01:26 10° W 03:08:41 85° N 03:19:58 10° E visible
13 Sep - 05:05:02 10° WNW 05:14:08 79° SSW 05:27:35 10° ESE visible
13 Sep - 07:09:22 10° W 07:19:41 45° SSW 07:33:01 10° SSE visible
13 Sep - 09:17:40 10° WSW 09:24:42 16° SW 09:32:20 10° SSW visible
13 Sep - 22:26:34 10° SSE 22:28:01 11° SE 22:29:33 10° ESE daylight
14 Sep - 00:25:05 10° SW 00:30:24 54° SSE 00:38:08 10° ENE visible
14 Sep - 02:27:49 10° W 02:34:32 86° N 02:45:00 10° E visible
14 Sep - 04:31:17 10° W 04:39:45 83° SSW 04:52:35 10° ESE visible
14 Sep - 06:35:20 10° W 06:45:12 48° SSW 06:58:29 10° SE night (unlit)
14 Sep - 08:42:30 10° W 08:50:18 19° SW 08:59:05 10° S visible
14 Sep - 23:51:43 10° SW 23:56:39 45° SSE 00:03:31 10° E daylight
15 Sep - 01:54:15 10° W 02:00:28 87° N 02:10:07 10° E visible
15 Sep - 03:57:35 10° W 04:05:27 86° SSW 04:17:35 10° ESE visible
15 Sep - 06:01:23 10° W 06:10:45 52° SSW 06:23:51 10° SE visible
15 Sep - 08:07:41 10° W 08:15:53 21° SW 08:25:29 10° S visible
15 Sep - 23:18:25 10° SW 23:22:57 37° SSE 23:28:58 10° E daylight
16 Sep - 01:20:40 10° W 01:26:28 90° S 01:35:19 10° E visible
16 Sep - 03:23:55 10° W 03:31:13 89° S 03:42:35 10° ESE visible
16 Sep - 05:27:31 10° W 05:36:21 55° SSW 05:49:07 10° SE visible
16 Sep - 07:33:07 10° W 07:41:29 24° SW 07:51:37 10° S night (unlit)
16 Sep - 22:45:09 10° SSW 22:49:17 30° SE 22:54:29 10° E daylight
17 Sep - 00:47:07 10° WSW 00:52:32 85° SSE 01:00:37 10° E visible
17 Sep - 02:50:16 10° W 02:57:03 88° N 03:07:36 10° E visible
17 Sep - 04:53:43 10° WNW 05:02:01 59° SSW 05:14:20 10° SE visible
17 Sep - 06:58:46 10° W 07:07:05 27° SW 07:17:34 10° SSE night (unlit)
17 Sep - 22:11:57 10° SSW 22:15:39 24° SE 22:20:00 10° E daylight
18 Sep - 00:13:34 10° WSW 00:18:40 79° SSE 00:26:02 10° E daylight
18 Sep - 02:16:39 10° W 02:22:57 86° N 02:32:41 10° E visible
18 Sep - 04:19:57 10° WNW 04:27:44 63° SSW 04:39:30 10° SE visible
18 Sep - 06:24:34 10° W 06:32:43 29° SW 06:43:21 10° SSE night (unlit)
18 Sep - 21:38:53 10° S 21:42:01 18° SE 21:45:30 10° E daylight
18 Sep - 23:40:02 10° WSW 23:44:51 72° SSE 23:51:32 10° ENE daylight
19 Sep - 01:43:03 10° W 01:48:55 84° N 01:57:51 10° E visible
19 Sep - 03:46:15 10° WNW 03:53:31 67° SSW 04:04:39 10° ESE visible
19 Sep - 05:50:29 10° W 05:58:23 32° SSW 06:09:01 10° SSE night (unlit)
19 Sep - 21:05:59 10° S 21:08:22 14° SE 21:10:53 10° ESE daylight
19 Sep - 23:06:30 10° WSW 23:11:05 63° SSE 23:17:08 10° E daylight
20 Sep - 01:09:27 10° W 01:14:56 83° N 01:23:06 10° E visible
20 Sep - 03:12:36 10° W 03:19:22 71° SSW 03:29:49 10° ESE visible
20 Sep - 05:16:31 10° W 05:24:05 34° SSW 05:34:35 10° SSE visible
20 Sep - 07:28:04 10° SW 07:28:52 10° SW 07:29:42 10° SW night (unlit)
20 Sep - 20:33:39 10° SSE 20:34:42 11° SE 20:35:45 10° SE daylight
20 Sep - 22:32:57 10° SW 22:37:22 54° SSE 22:42:50 10° E daylight
21 Sep - 00:35:52 10° W 00:41:00 83° N 00:48:27 10° E visible
21 Sep - 02:38:58 10° W 02:45:17 76° SSW 02:54:59 10° ESE visible
21 Sep - 04:42:38 10° W 04:49:50 37° SSW 05:00:05 10° SSE visible
21 Sep - 06:51:05 10° WSW 06:54:35 12° SW 06:58:24 10° SSW night (unlit)
21 Sep - 21:59:25 10° SW 22:03:40 45° SSE 22:08:38 10° E daylight
22 Sep - 00:02:15 10° W 00:07:08 84° N 00:13:55 10° E daylight
22 Sep - 02:05:22 10° W 02:11:15 80° SSW 02:20:12 10° ESE visible
22 Sep - 04:08:48 10° W 04:15:38 40° SSW 04:25:32 10° SE visible
22 Sep - 06:15:53 10° WSW 06:20:18 14° SW 06:25:21 10° SSW night (unlit)
22 Sep - 21:25:52 10° SW 21:29:58 37° SSE 21:34:29 10° E daylight
22 Sep - 23:28:37 10° W 23:33:17 86° N 23:39:29 10° E daylight
